Find Local Weather

World > North America > United States > Washington

Marblemount, Washington Regional Weather

Lat: 48.53N, Lon: 121.45W
Wx Zone: WAZ567
Warning FLW WEATHER ALERT - WINTER STORM WARNING (More Info. Click Here) Warning
Feedback
Expires:201901222300;;769008
ASUS46 KSEW 222210
RWRWA 

WASHINGTON REGIONAL WEATHER ROUNDUP
NATIONAL WEATHER SERVICE SEATTLE WA
200 PM PST TUE JAN 22 2019

NOTE:"FAIR" INDICATES FEW OR NO CLOUDS BELOW 12,000 FEET WITH NO 
SIGNIFICANT WEATHER AND/OR OBSTRUCTIONS TO VISIBILITY.


WAZ019-023-024-040-567>569-222300-
CASCADE MOUNTAINS AND COLUMBIA GORGE
  
CITY           SKY/WX    TMP DP  RH WIND       PRES   REMARKS
STAMPEDE PASS  SNOW      32  30  92 CALM      30.16F VSB 1/2          
TROUTDALE, OR  LGT RAIN  44  40  85 NE3       30.38F FOG              
HOOD RIVER, OR LGT RAIN  43  37  81 CALM      30.35F                  
THE DALLES, OR CLOUDY    43  35  73 CALM      30.35F                  
$$


SKY/WX - Weather  TMP - Temperature  DP - Dew Point  RH - Relative Humidity
WIND - Wind Direction/Speed PRES - Barometric Pressure